Theta_e
350 351 350 347 348 350 349 348 350 350 350 350 351 351 352 352 352 352 351 350 347 345 346 345 349 353 350 347 350 350 351 350 347 347 351 351 351 349 344 342 340 338 337 335 334 333 331 330 329 332 336 341 344 345 344 343 341 340 340 340 340 338 336 335 337 341 345 346 346 344 340 339 340 335
351 351 350 350 349 350 349 348 349 351 350 350 351 351 352 352 352 353 353 352 349 347 346 347 348 350 351 350 349 349 350 349 347 347 349 350 349 344 339 340 339 337 336 334 333 332 331 330 328 329 332 335 340 342 343 342 340 339 338 338 338 337 335 334 335 339 343 346 346 345 341 339 340 339
352 349 348 348 348 350 350 348 349 349 349 349 350 351 351 352 352 352 353 353 352 348 348 350 349 349 350 350 349 349 349 350 348 345 345 347 344 339 341 346 343 337 334 333 333 332 331 330 328 328 329 330 334 337 339 338 337 336 336 335 335 334 333 332 333 337 342 345 346 345 342 340 340 340
353 348 345 345 346 346 347 348 349 348 348 348 349 350 351 351 351 351 352 353 354 352 350 350 350 349 350 350 350 351 350 350 350 348 348 347 345 344 348 350 347 341 335 331 331 330 330 329 327 328 328 329 330 332 334 334 333 333 333 333 333 333 333 332 332 335 340 344 345 344 342 341 341 340
350 347 345 344 344 343 344 346 349 349 348 349 349 350 351 351 351 352 352 353 354 353 352 351 352 350 349 350 351 350 349 350 350 348 348 348 347 349 349 348 347 346 339 332 330 329 329 328 328 329 329 330 330 330 331 331 332 332 332 332 332 332 332 332 331 333 338 342 344 343 341 342 342 341
346 345 344 344 345 346 346 346 348 350 349 349 349 349 351 351 351 352 353 352 353 354 353 352 352 352 351 351 350 347 346 346 345 343 345 348 348 348 348 347 346 348 343 334 329 330 329 328 329 330 329 330 329 330 330 330 330 331 331 331 332 332 332 332 331 331 335 340 342 341 341 342 343 342
348 347 345 347 349 351 351 349 349 351 351 351 350 349 350 350 350 351 351 350 350 351 351 350 351 352 351 349 348 347 346 346 345 345 347 349 348 348 348 347 346 348 345 337 331 331 330 330 331 330 330 330 330 330 330 330 329 329 330 330 330 331 331 331 332 330 332 338 340 340 340 341 342 342
351 350 348 350 352 351 351 349 349 352 353 352 352 352 351 351 352 352 352 349 346 346 347 348 348 348 347 347 349 350 350 350 349 348 347 348 348 348 348 346 347 347 346 342 337 332 329 329 330 329 331 330 330 330 329 329 329 328 329 329 329 330 331 331 331 331 331 335 339 339 339 341 342 343
348 348 348 350 351 351 351 351 353 355 352 351 353 355 354 355 354 352 351 348 345 344 345 347 346 346 349 352 352 351 351 351 350 348 348 348 349 348 346 346 346 344 344 346 343 336 332 331 329 328 330 329 329 330 329 329 329 329 328 329 329 329 329 330 331 331 330 333 336 339 339 341 342 342
349 350 350 349 349 351 351 351 353 352 349 350 352 352 351 351 351 350 350 349 347 347 348 349 350 352 354 355 354 352 350 348 346 347 347 347 348 347 345 343 343 343 344 343 341 340 338 333 329 327 327 328 328 327 327 328 329 329 329 328 329 329 329 329 330 331 330 331 334 338 339 340 342 343
352 353 352 351 351 352 351 352 352 351 350 352 352 350 349 350 349 351 353 353 352 352 352 353 355 355 355 355 354 355 353 350 349 350 349 348 347 346 342 339 339 340 338 336 339 343 340 333 331 330 326 327 328 327 327 327 327 328 328 328 328 328 328 329 329 330 331 331 332 336 338 340 342 344
353 353 353 353 353 353 352 351 351 351 352 352 352 352 352 350 348 350 353 354 352 353 354 355 355 354 354 355 355 355 355 354 354 352 350 351 350 348 345 343 339 334 332 336 344 347 342 336 338 338 332 328 327 324 324 325 326 326 326 327 327 327 328 328 329 330 331 331 331 333 337 340 342 343
353 353 352 351 352 353 350 345 343 344 344 343 344 345 346 345 346 347 350 351 351 352 354 355 355 354 353 353 352 352 352 352 350 348 348 351 351 349 349 349 347 342 339 338 341 342 340 338 339 338 335 332 331 331 332 335 335 330 326 326 326 326 326 327 328 330 331 331 332 333 336 339 341 343
353 352 351 351 351 349 344 341 340 340 339 338 337 338 338 340 341 342 345 349 351 353 354 354 353 352 351 351 350 349 348 347 345 346 348 349 347 344 347 349 348 347 346 340 335 336 339 339 336 332 333 336 338 340 344 344 339 332 328 327 326 326 326 326 327 329 330 332 332 333 335 338 341 343
351 351 350 351 351 348 346 346 346 344 342 341 339 337 336 335 336 336 337 340 344 347 349 351 351 351 351 351 350 348 346 345 345 346 346 345 342 342 346 349 347 346 347 344 340 340 342 343 341 336 335 339 341 344 346 344 337 334 331 329 328 327 326 326 326 327 330 332 332 332 334 337 340 342
351 351 350 350 349 349 350 350 347 345 345 345 344 342 339 337 336 335 334 334 335 336 340 344 346 348 349 349 348 346 344 344 345 344 343 343 344 346 348 349 348 347 346 346 347 348 347 347 347 345 344 346 347 347 347 343 338 338 337 334 331 329 327 326 326 326 328 331 332 332 333 335 339 341
351 351 351 351 349 350 351 348 344 344 345 345 345 345 344 342 340 340 340 339 338 338 339 340 341 343 345 345 345 345 345 345 346 346 346 347 348 349 349 349 348 347 347 348 350 351 351 350 351 352 351 351 352 352 351 347 342 341 342 341 338 333 329 327 326 325 327 329 331 332 332 334 337 339
350 350 350 351 351 351 350 347 343 345 346 345 345 346 345 344 344 343 343 343 344 344 344 344 344 343 344 345 345 346 347 347 348 348 349 349 349 349 349 349 349 349 349 350 352 352 351 351 353 354 354 353 354 354 354 351 347 343 345 345 344 340 336 332 329 327 327 327 330 331 332 333 335 337
347 347 347 348 349 349 347 344 343 345 345 344 344 345 345 345 345 345 345 346 347 347 347 347 347 347 348 348 348 347 348 349 349 350 350 350 351 351 350 350 351 352 353 354 354 354 353 354 356 355 354 355 354 353 353 352 349 347 346 346 346 345 343 340 336 332 329 329 331 332 333 333 334 336
344 345 344 345 347 348 346 343 343 344 343 343 344 343 344 345 345 347 349 348 347 347 347 348 348 349 349 349 348 348 349 349 350 350 351 351 351 351 352 353 353 354 355 355 356 357 356 357 358 357 356 356 354 352 354 356 354 352 350 349 348 348 348 347 344 339 335 333 334 335 335 336 336 337
347 347 345 344 347 348 348 345 344 343 343 343 343 343 344 344 345 347 350 351 349 348 347 346 346 347 347 347 348 348 347 348 349 350 351 351 351 352 353 354 353 353 354 354 355 355 356 356 358 357 357 355 354 353 355 357 356 355 354 352 350 349 349 350 349 346 343 339 337 337 338 339 341 341
352 351 349 348 348 349 348 347 346 346 345 345 346 346 346 346 347 350 352 352 352 353 352 349 347 346 346 346 346 346 346 347 349 350 350 351 352 353 354 354 354 353 353 353 353 353 353 354 356 357 356 354 354 355 356 356 356 356 356 354 353 351 350 350 350 349 347 345 343 341 339 339 340 341
353 352 351 351 350 349 349 349 348 348 348 348 348 349 349 348 349 350 351 351 351 353 353 352 350 349 349 349 348 348 349 349 349 350 350 351 352 354 354 354 354 354 355 355 355 354 352 353 355 355 355 354 352 351 354 356 355 355 356 355 354 354 353 351 350 349 348 348 348 347 345 343 341 340
352 352 352 351 351 350 349 349 349 349 350 350 349 350 350 350 349 349 348 349 350 350 351 351 352 352 352 353 353 353 353 353 353 353 353 353 354 355 355 354 354 355 356 356 357 356 354 353 355 355 354 355 352 349 351 355 355 354 355 355 355 355 355 353 351 350 349 348 349 349 349 348 346 344
348 348 348 348 349 349 348 349 349 349 349 350 350 350 350 350 350 350 349 350 350 350 351 352 353 352 353 353 354 355 355 355 355 354 355 355 355 355 355 355 354 354 353 354 355 355 354 355 356 355 354 354 353 352 351 351 352 354 354 354 355 355 356 355 354 354 352 351 350 350 350 350 349 348
343 343 343 344 345 346 346 346 346 346 346 347 347 347 348 348 348 348 349 349 349 349 350 352 352 352 351 352 352 353 353 353 353 353 354 354 354 354 354 355 355 354 353 353 354 354 353 354 355 355 354 354 353 353 351 350 350 352 354 355 355 355 356 356 355 355 355 353 352 351 352 351 351 350
337 337 338 338 338 338 338 338 338 339 340 341 342 343 345 345 345 346 346 347 348 348 349 349 349 349 350 351 351 351 352 352 352 352 352 352 352 352 353 354 354 354 353 353 354 354 353 354 354 353 353 353 353 353 353 352 351 351 352 354 354 354 355 356 356 356 355 354 354 353 352 351 351 351
330 330 329 330 330 329 330 330 330 332 333 334 336 337 338 339 340 341 343 344 346 346 347 346 347 348 348 349 349 349 349 349 348 348 349 350 350 350 351 352 353 353 353 353 354 354 353 353 353 353 353 353 353 353 353 353 353 352 351 352 352 353 354 354 354 355 355 355 355 355 354 353 353 352
324 324 324 324 324 324 324 325 325 326 327 328 329 329 330 333 334 334 336 338 340 341 342 343 343 344 345 346 346 346 345 345 345 346 347 348 348 349 349 349 350 350 351 352 352 353 353 352 352 352 352 352 352 353 353 353 353 353 352 351 351 352 352 351 352 355 356 355 354 354 354 355 354 354
321 321 321 320 320 321 321 321 322 322 322 323 324 324 326 330 330 328 329 332 334 335 336 337 337 339 340 341 342 341 341 341 342 343 345 345 346 347 347 347 348 348 349 350 351 350 351 352 351 350 350 350 350 352 352 353 353 354 353 353 352 351 351 350 351 352 353 353 353 353 354 355 355 355
315 315 315 316 315 316 316 317 318 318 318 319 320 320 322 324 324 324 325 326 327 329 331 332 333 335 337 338 338 338 338 339 339 339 340 341 342 343 343 344 345 346 348 349 350 350 350 350 349 348 348 348 349 350 351 351 352 353 354 355 354 353 352 351 350 350 351 352 353 353 354 354 355 355
312 311 311 311 311 311 312 312 313 313 314 315 316 316 318 319 319 319 320 321 321 323 324 326 327 328 329 330 331 331 332 333 333 332 333 335 337 339 340 340 341 342 344 346 348 349 349 349 348 347 347 347 347 348 349 350 350 351 352 354 354 354 353 353 352 352 353 353 353 353 353 353 354 355
311 310 310 311 310 310 311 311 311 311 310 311 312 312 313 314 315 315 316 316 317 318 319 320 321 322 322 323 323 324 325 324 324 323 324 325 328 331 333 334 336 337 339 341 344 345 346 345 345 345 346 346 346 346 348 348 349 350 351 351 351 352 354 354 354 354 353 353 353 354 355 354 353 354
310 310 311 311 311 310 310 310 310 310 310 309 310 310 310 311 311 312 312 312 313 314 315 316 317 318 318 319 320 320 320 319 319 320 320 320 321 322 323 324 326 328 330 333 335 336 336 336 336 336 338 339 340 342 345 346 347 349 350 350 350 351 353 353 354 354 354 353 354 354 355 355 355 354
310 310 311 311 310 310 311 310 309 310 311 310 310 310 310 310 310 310 310 310 310 311 311 312 313 313 314 315 315 315 315 315 315 316 316 317 317 318 318 318 319 320 321 323 324 324 325 325 324 326 329 332 334 337 340 343 346 348 349 350 350 351 352 352 351 352 352 352 352 352 353 354 355 355
311 311 311 311 310 310 311 311 310 311 311 311 311 310 310 310 310 310 310 310 310 310 310 310 310 311 311 311 311 311 311 312 311 312 313 313 313 314 314 314 315 315 316 317 318 318 319 319 321 327 332 335 338 338 337 339 344 347 348 348 348 349 350 348 347 349 350 350 351 352 352 353 354 354
311 312 313 313 312 311 311 311 311 312 312 312 312 312 311 311 311 311 310 311 310 310 310 310 310 310 310 310 310 310 311 310 310 311 311 311 311 311 311 312 311 312 312 313 313 314 315 316 321 329 335 337 339 338 332 327 329 334 336 337 338 338 336 334 336 340 343 346 349 350 351 352 352 351
311 312 313 313 312 311 311 311 311 311 311 311 311 312 312 312 312 312 311 311 311 311 311 311 311 311 311 311 311 311 311 311 312 312 312 312 313 312 311 311 311 310 311 310 310 312 312 314 321 329 334 334 333 332 328 322 320 322 324 324 324 325 325 327 333 337 338 341 347 350 351 351 350 348
313 312 312 312 312 311 310 310 310 310 310 310 310 311 311 310 310 311 311 311 311 311 311 311 312 311 311 311 311 312 312 312 312 312 313 313 313 313 312 312 311 311 310 310 310 311 312 315 322 326 326 324 323 323 321 319 318 317 318 319 323 328 331 333 337 339 339 339 341 344 345 347 348 348
313 313 312 311 311 311 310 310 310 310 309 309 309 310 309 309 309 310 311 310 310 310 311 311 311 311 311 311 311 312 312 312 312 312 313 313 313 312 312 312 312 312 313 314 313 313 314 317 320 320 317 316 316 316 316 318 318 316 317 321 327 332 333 333 333 334 334 333 335 336 337 340 344 346
312 312 312 311 311 311 311 310 310 310 310 310 310 310 309 309 309 310 309 309 310 311 311 311 310 310 310 310 310 311 311 311 312 312 312 312 312 312 312 312 313 314 315 315 314 313 314 315 315 314 313 315 316 318 321 324 325 323 320 320 320 321 323 325 328 329 328 327 331 335 337 337 338 340
311 311 311 311 310 310 310 310 310 310 309 309 309 309 309 309 310 310 310 310 310 311 311 311 310 309 309 309 309 309 309 309 310 310 311 311 311 311 312 313 313 314 314 313 313 313 313 313 312 313 314 316 318 321 323 326 326 324 320 316 314 315 318 322 324 324 322 320 322 328 333 336 340 342
310 310 310 310 309 309 310 310 309 309 309 309 309 309 309 309 309 309 310 310 310 310 310 310 309 307 307 308 307 307 307 308 308 309 309 309 310 310 311 311 312 312 312 312 313 314 314 314 314 315 316 317 319 321 322 323 323 323 322 320 317 315 315 315 314 314 316 318 320 322 325 330 335 338
309 308 308 308 308 308 309 309 309 309 309 308 308 308 308 309 309 309 309 309 309 309 309 309 308 307 306 307 306 306 306 307 307 307 307 308 308 309 310 310 310 311 311 312 313 314 314 314 315 316 317 318 319 320 321 322 322 322 322 321 318 316 316 318 320 321 322 322 322 322 322 323 325 327
307 307 307 307 307 307 307 307 307 307 307 307 308 308 308 308 308 308 308 308 308 308 308 307 307 306 305 305 305 305 305 306 306 306 307 307 308 308 308 309 310 310 311 312 313 313 314 315 315 315 316 317 318 319 320 320 321 321 321 321 321 321 323 325 326 326 324 319 316 316 317 319 320 320
Wind_Speed
4 4 5 5 5 6 7 5 5 6 6 5 5 5 5 6 7 8 8 7 8 9 8 8 7 10 15 14 11 11 11 13 16 14 12 13 14 18 22 22 23 23 22 21 19 18 18 18 19 19 19 19 18 18 18 19 20 20 20 21 22 23 23 22 21 20 19 19 20 21 21 21 21 20
5 5 5 5 5 5 7 6 6 7 8 6 6 6 6 6 7 7 9 9 9 9 10 10 10 12 13 12 10 10 10 15 18 16 14 14 15 20 22 21 22 21 21 20 18 17 18 19 20 20 19 19 19 19 19 19 19 20 20 21 22 23 23 22 20 19 18 18 19 19 20 20 20 20
7 7 6 6 6 6 6 7 6 8 9 8 7 7 7 8 8 8 10 11 10 9 11 11 11 12 12 11 10 10 9 13 18 18 16 15 18 20 19 19 21 21 20 19 18 17 18 19 20 20 20 20 20 20 20 20 20 21 21 22 23 23 24 23 20 18 17 17 18 18 18 19 19 20
7 8 8 8 8 8 7 7 7 8 9 9 8 8 9 9 9 10 10 11 12 11 11 12 12 11 12 11 11 11 10 12 16 17 16 16 18 18 16 16 20 22 21 19 18 17 18 19 20 21 21 21 21 21 21 21 22 22 23 24 25 25 25 24 20 18 17 17 17 17 17 18 18 19
8 9 8 8 9 9 9 8 7 7 8 8 8 8 9 8 8 9 10 11 13 13 12 12 12 12 12 11 11 12 12 12 14 16 16 16 16 15 15 15 17 20 21 19 18 18 18 19 20 21 22 22 22 22 21 22 22 22 24 25 26 26 26 24 21 18 17 16 16 16 16 17 17 18
9 9 9 8 8 8 8 8 7 7 7 8 8 8 8 9 8 9 11 12 13 13 13 13 13 12 12 12 12 13 13 13 15 15 15 14 14 13 14 14 14 18 20 20 19 20 20 21 21 22 22 22 22 22 22 22 22 23 24 26 26 26 25 23 21 19 17 16 15 15 15 16 16 17
7 8 8 7 7 6 7 7 6 7 7 7 8 9 9 10 10 10 12 13 13 14 15 15 14 13 13 13 13 12 12 13 14 14 14 13 13 13 13 14 13 16 20 20 18 19 20 21 21 22 22 22 23 23 23 23 23 24 25 26 26 25 24 22 20 19 17 16 15 14 14 15 16 16
7 8 7 7 7 7 8 8 7 7 7 7 7 8 8 9 9 10 11 13 14 15 17 16 15 14 14 13 12 11 12 12 13 14 14 14 14 13 13 13 13 16 20 21 19 19 19 19 20 20 21 22 22 23 23 23 24 25 25 26 25 24 23 21 20 19 17 16 15 14 14 14 15 16
8 8 8 7 7 7 7 7 6 6 7 7 7 7 7 8 9 10 11 12 14 15 16 16 16 15 14 12 11 11 11 12 13 13 14 13 14 14 13 13 13 16 18 19 20 21 20 20 21 20 20 20 21 21 22 22 23 24 25 26 26 24 22 21 20 19 17 16 15 14 14 14 14 15
7 7 8 8 7 8 7 7 7 7 8 7 7 8 9 8 9 11 11 12 13 14 15 15 15 14 12 12 12 12 12 13 14 14 15 14 14 14 15 15 15 15 16 18 20 21 21 22 24 24 23 21 21 21 21 21 21 23 24 25 26 24 23 22 21 19 18 17 16 15 14 13 13 14
7 8 8 8 8 7 7 7 7 7 7 7 8 9 9 10 10 10 10 11 12 13 13 14 13 13 12 12 13 12 13 14 14 15 16 16 16 17 20 20 20 19 19 21 21 20 23 25 26 26 27 25 23 22 22 22 21 22 23 25 25 25 24 23 22 20 18 17 16 15 14 14 13 13
8 8 8 8 8 8 8 8 7 7 7 8 8 8 9 10 11 11 11 12 12 13 13 13 13 14 13 13 13 12 12 13 15 15 16 17 18 19 21 22 23 24 25 23 19 18 23 26 25 25 27 28 27 26 25 25 24 23 23 24 26 26 26 25 23 21 19 17 16 15 14 14 14 13
8 8 9 9 9 10 11 9 9 9 10 10 10 10 11 11 11 12 12 12 13 13 13 13 14 14 14 13 13 12 13 14 16 17 17 18 19 20 21 22 22 24 25 25 22 22 25 27 26 26 28 28 27 27 25 23 23 25 25 24 26 27 27 26 24 22 19 17 16 15 14 14 14 14
9 9 10 9 11 13 12 11 11 11 11 12 12 12 13 13 13 13 13 13 13 13 14 14 14 15 15 14 14 15 15 16 16 16 17 19 22 23 24 24 23 22 24 28 30 30 29 29 30 29 28 26 25 23 20 19 22 25 26 25 25 26 27 27 26 23 20 17 16 15 14 14 14 14
10 10 10 10 11 12 11 10 12 12 12 13 14 14 15 15 15 16 16 16 15 15 15 15 15 16 16 16 16 17 17 16 17 17 18 21 24 25 25 26 26 25 26 31 35 35 32 31 31 30 29 27 25 21 20 22 24 24 24 24 24 25 26 27 27 25 22 18 16 15 14 14 14 14
10 10 10 10 10 11 11 12 13 14 14 13 14 15 16 17 17 17 18 18 18 18 18 18 18 17 18 18 18 18 18 19 20 22 23 24 25 25 25 27 29 29 31 35 38 37 33 30 30 30 29 27 25 23 24 26 25 22 22 23 23 24 25 26 26 26 24 21 17 15 15 14 14 15
12 11 11 11 10 10 12 13 13 14 15 15 15 16 17 18 18 18 18 18 18 19 19 20 21 20 19 20 20 20 21 23 24 25 26 26 27 27 29 30 32 34 34 35 36 34 30 27 26 27 28 26 24 24 26 28 28 25 23 23 23 23 23 24 26 26 25 24 21 18 17 16 15 15
13 13 12 12 12 11 13 15 14 14 14 15 16 17 18 18 18 19 19 18 18 19 20 21 22 21 21 22 23 23 23 25 26 28 29 30 30 31 32 34 35 35 33 31 31 30 28 27 27 27 27 25 24 23 24 27 31 30 26 23 22 22 22 23 24 25 25 25 23 21 19 18 18 17
15 15 14 14 14 14 16 18 17 16 17 17 18 19 19 20 20 21 21 20 19 20 21 22 22 21 21 23 24 25 25 27 28 30 32 33 34 35 35 35 33 30 27 24 24 29 30 28 27 27 26 24 25 25 25 26 28 29 27 24 21 20 20 21 22 23 25 25 24 23 22 21 20 19
17 16 16 15 13 14 17 19 19 19 20 19 19 20 21 22 22 22 21 22 22 22 22 24 24 23 23 24 26 27 27 29 31 32 34 34 34 33 32 31 28 24 21 19 19 26 30 27 24 27 26 25 26 27 26 24 24 25 25 23 20 18 17 18 20 22 23 24 25 24 24 23 22 22
15 16 18 16 13 14 18 19 19 19 19 20 20 21 21 22 23 22 20 21 23 24 25 26 26 26 27 27 28 29 30 31 32 32 33 32 30 28 27 26 26 23 22 21 20 23 27 25 24 26 27 26 27 26 23 21 21 23 24 24 22 21 18 16 17 19 21 23 25 26 26 26 25 25
11 14 16 15 15 16 19 19 19 18 19 19 19 20 20 20 21 19 18 17 18 20 23 25 26 28 29 30 32 32 31 30 29 29 30 29 25 24 24 25 26 27 26 24 22 23 25 25 23 24 26 27 25 22 19 19 20 21 23 24 24 23 20 16 14 15 18 20 23 25 26 27 28 28
11 12 14 15 16 18 18 19 19 18 19 19 19 19 20 20 20 20 20 20 20 19 21 25 27 28 29 30 31 30 28 26 25 26 27 25 22 22 24 24 24 26 24 21 20 23 25 25 24 23 24 27 27 24 20 19 20 20 21 22 23 24 24 21 17 15 16 17 19 22 24 26 28 30
9 10 12 15 17 17 17 17 18 18 18 19 19 19 19 20 22 23 23 24 24 25 26 26 26 26 25 25 24 23 22 20 20 22 23 22 20 20 22 23 22 23 22 20 21 25 26 25 25 23 20 22 27 28 25 21 20 20 20 21 21 22 23 23 20 18 18 17 17 18 20 22 25 27
5 6 9 13 16 16 16 17 17 18 18 18 19 19 20 21 22 23 24 24 25 26 25 23 22 22 21 20 19 18 18 18 17 17 19 20 19 19 21 24 25 26 26 23 25 28 27 25 23 22 20 21 23 26 28 27 23 19 18 20 21 20 21 22 20 19 20 20 18 15 15 17 20 23
3 3 6 11 13 13 14 15 16 17 17 17 18 18 19 19 19 20 21 21 21 20 18 17 18 19 19 19 18 16 18 19 18 16 18 21 22 21 21 23 26 28 28 26 25 27 27 26 24 22 21 22 23 24 27 28 26 20 18 19 20 20 21 21 21 20 19 19 20 18 15 14 16 19
4 5 7 10 10 10 11 12 13 14 16 16 16 17 16 17 17 17 16 15 14 14 13 13 14 15 15 16 16 14 16 18 18 18 19 21 22 22 22 23 24 26 27 27 26 26 25 25 25 24 23 22 22 23 24 25 25 23 21 20 19 20 20 21 21 21 19 19 22 22 20 18 16 16
6 7 8 8 8 8 9 10 12 13 14 14 15 16 16 16 17 17 16 15 15 15 14 14 14 14 14 14 14 15 16 18 19 20 20 20 20 21 22 23 23 24 24 24 24 24 23 22 22 23 24 24 23 23 23 24 25 26 25 23 22 20 20 21 22 21 19 19 20 22 23 23 21 18
6 7 7 7 8 8 9 9 11 12 12 13 14 15 14 14 15 17 17 18 18 18 18 17 17 17 17 18 18 19 21 21 20 20 19 19 19 20 22 23 23 23 22 20 21 22 22 22 23 23 24 25 25 24 24 24 24 25 24 24 24 23 23 24 22 20 19 19 20 20 21 21 22 23
6 7 7 8 8 8 9 9 10 11 11 12 13 14 13 13 15 17 18 18 19 20 19 19 20 20 20 20 21 22 23 21 19 19 19 19 19 19 20 22 23 23 22 20 20 21 21 22 23 24 24 25 25 25 25 25 25 24 22 22 24 26 26 25 23 22 21 22 21 21 20 19 20 23
7 8 8 9 9 10 10 11 11 12 12 12 13 13 14 15 16 17 17 18 19 19 20 20 20 21 20 20 20 21 21 20 19 20 21 21 20 20 21 23 23 22 21 19 18 20 21 21 23 23 23 24 25 25 25 26 27 26 23 20 22 24 25 24 24 23 22 21 22 22 21 21 21 21
9 10 10 10 10 10 10 10 11 12 13 13 13 13 13 15 16 16 16 16 17 17 18 18 19 19 20 20 20 20 20 21 21 21 21 21 21 21 22 24 25 25 24 22 19 20 21 21 22 23 23 23 25 25 26 26 27 27 25 23 22 23 24 23 23 22 21 22 23 23 23 23 22 20
10 10 10 11 10 10 9 9 10 11 12 12 13 13 13 13 15 15 16 16 16 16 16 17 17 18 18 19 20 20 21 22 22 22 22 21 22 23 24 26 27 28 28 28 25 25 25 26 26 27 26 24 24 25 25 27 26 25 25 25 24 23 22 20 20 21 21 23 24 24 23 23 22 21
9 10 10 10 10 10 10 10 10 10 11 11 11 12 12 13 14 15 16 16 16 16 17 17 17 18 18 18 19 21 23 23 22 22 22 22 22 23 24 26 27 28 29 30 30 30 30 31 31 31 31 29 27 26 25 26 27 26 25 25 25 24 23 22 21 20 20 22 23 24 25 24 22 21
9 9 10 10 11 11 11 11 12 11 11 11 11 11 11 12 13 14 15 15 16 16 17 17 18 19 19 20 21 23 24 24 24 23 23 23 23 24 24 25 27 27 28 30 31 31 31 31 31 31 31 30 29 28 26 24 24 25 24 24 24 24 24 24 25 24 24 25 25 26 27 27 25 23
7 8 9 9 10 11 10 11 12 12 12 12 13 12 12 13 13 14 14 14 14 15 15 16 17 18 20 20 22 24 24 25 25 24 24 25 26 26 27 27 28 29 29 29 30 30 30 30 28 26 25 25 24 25 26 23 21 21 23 24 25 24 25 27 27 27 27 28 28 28 28 27 26 25
5 5 6 7 9 9 10 10 11 11 11 12 12 13 13 14 15 16 16 16 16 16 16 16 17 18 19 20 21 22 23 24 24 24 24 25 26 27 29 29 30 31 31 31 31 31 30 29 25 21 20 21 21 24 29 31 28 25 26 28 30 31 32 33 33 32 30 29 29 30 29 28 29 29
5 4 5 6 7 8 8 9 9 10 11 11 12 13 14 14 16 17 17 17 17 18 17 17 18 19 21 21 21 21 22 23 23 23 24 24 24 26 28 29 30 32 33 34 34 32 30 28 23 18 16 18 21 25 31 35 36 33 30 30 32 33 33 33 33 33 31 30 30 30 29 29 31 31
6 6 6 6 7 8 8 9 9 10 10 11 11 12 13 14 15 16 16 16 17 18 18 17 18 19 21 22 22 22 22 22 23 23 23 24 25 27 29 30 30 31 33 33 33 32 31 27 22 18 20 23 26 28 30 34 38 39 36 33 30 29 28 28 29 31 31 31 31 32 31 31 31 31
6 6 6 6 7 8 8 9 10 11 11 11 11 12 13 14 14 14 15 16 17 16 16 16 17 18 20 21 22 22 22 23 23 23 24 26 27 28 30 31 32 31 30 30 31 31 30 26 23 25 29 31 32 32 32 34 37 39 38 33 27 24 25 27 29 30 32 33 33 34 34 33 33 32
6 6 6 7 7 8 8 9 9 10 11 11 12 13 13 14 13 13 14 15 15 14 14 15 16 17 18 19 20 20 21 22 23 24 25 27 29 30 30 30 29 27 26 29 31 32 31 30 30 32 33 33 32 31 30 29 30 33 35 34 32 30 30 29 28 29 31 33 33 33 34 34 35 35
7 6 7 7 7 8 8 9 9 10 10 10 11 12 13 12 13 14 14 13 13 13 13 15 16 17 17 18 19 20 21 21 22 24 26 27 29 30 30 28 26 26 28 31 33 33 33 34 34 33 32 30 28 25 25 25 27 31 35 38 39 37 33 30 30 31 33 34 34 34 34 33 31 31
8 7 7 8 8 8 9 9 10 10 10 11 12 13 12 12 12 12 12 12 12 13 14 15 17 17 17 18 19 21 22 22 23 24 26 27 27 29 29 28 28 29 31 32 32 31 32 32 31 30 29 27 24 22 24 26 28 31 34 36 38 39 38 38 38 38 36 35 33 33 34 33 31 32
8 8 8 9 9 9 9 9 10 10 10 11 12 12 12 12 13 12 12 12 12 13 14 16 18 18 18 19 20 21 22 23 24 26 27 27 26 27 27 28 29 30 31 30 29 29 28 27 26 26 27 25 23 23 25 27 29 31 33 35 38 41 41 38 36 35 35 35 34 34 35 35 35 36
8 8 9 9 9 10 10 10 10 11 11 11 12 12 13 13 13 13 13 13 13 14 15 16 16 17 17 19 21 22 23 24 25 25 25 25 25 26 26 27 27 27 28 28 27 27 25 24 23 24 25 25 24 24 25 27 28 30 32 34 36 36 34 32 32 33 36 39 40 38 37 37 37 38
Wind_Direction
265 269 272 279 278 275 279 280 282 286 292 310 317 315 316 310 311 312 310 304 297 299 305 305 306 310 317 326 323 318 314 302 308 316 310 311 311 306 310 316 316 318 322 325 326 323 321 324 326 326 325 325 325 327 328 329 329 330 331 334 336 337 339 340 339 338 335 336 340 342 345 347 348 350
257 255 256 267 269 273 282 282 277 279 286 296 298 297 298 298 303 306 306 305 299 299 304 302 305 312 319 325 320 315 310 304 308 311 308 307 304 302 310 316 317 319 323 326 327 323 321 322 323 323 323 322 322 322 323 324 325 327 328 328 330 331 333 337 339 338 334 334 337 340 341 345 347 348
255 254 253 256 259 261 267 270 270 272 277 282 284 286 288 291 297 300 300 299 297 299 303 302 305 310 313 316 313 312 310 303 304 308 310 307 305 310 319 320 319 321 323 324 325 322 320 320 320 321 321 321 322 322 321 321 321 323 324 324 324 325 329 334 337 337 334 332 335 338 338 342 346 346
254 257 258 259 260 262 265 269 272 273 277 279 277 279 283 289 295 297 296 296 297 300 302 303 307 308 308 309 308 307 309 305 304 308 312 310 312 317 319 315 314 317 321 323 321 320 318 317 318 319 320 323 324 324 324 323 322 322 322 322 322 323 326 331 334 335 333 332 334 336 335 338 343 346
254 259 260 260 260 263 265 265 268 272 276 277 277 278 283 287 290 291 293 293 296 302 307 308 308 309 310 309 307 306 306 305 303 305 309 313 316 315 311 312 311 311 316 321 319 319 318 317 318 319 321 324 325 325 324 323 322 321 320 321 322 323 326 328 331 332 332 332 333 335 334 334 339 344
253 258 260 261 263 266 268 267 266 269 269 270 272 273 275 280 283 286 290 292 295 302 308 311 313 314 312 309 307 308 307 308 308 310 315 316 316 312 309 314 311 304 310 319 320 320 320 320 320 320 321 322 323 323 323 322 322 321 320 322 324 325 326 328 328 329 329 330 331 332 332 332 334 341
248 255 258 259 259 257 260 265 264 265 267 268 269 270 270 275 280 283 286 291 296 299 304 311 314 312 310 309 311 313 313 314 314 315 317 314 313 312 310 315 311 301 307 318 320 318 319 319 319 320 320 320 321 322 323 323 323 323 323 324 326 328 329 329 328 327 326 327 328 328 329 331 332 336
241 247 251 249 248 247 253 263 265 263 265 268 272 277 279 280 282 284 286 291 296 299 302 307 310 310 312 313 315 316 314 314 315 315 316 315 313 311 310 314 311 307 314 321 320 319 319 317 317 319 319 319 321 322 323 324 323 323 324 325 327 330 331 331 329 326 324 323 324 324 325 328 330 333
244 245 247 244 245 248 253 259 259 257 261 266 271 275 276 279 281 282 286 291 295 298 300 304 307 310 312 310 310 313 313 313 314 313 314 315 314 313 314 313 310 313 320 322 321 322 321 319 318 318 317 317 318 320 321 321 321 321 322 323 326 328 330 331 330 326 322 320 320 320 319 324 328 331
251 248 249 249 248 248 251 252 250 254 261 265 266 267 270 275 278 282 290 294 295 296 298 301 305 306 305 303 306 310 310 311 311 310 312 314 314 316 317 315 314 316 314 313 317 320 319 318 317 316 315 314 315 317 318 318 316 317 319 320 322 324 325 326 326 325 321 316 316 316 314 317 323 329
248 248 248 250 251 251 254 255 256 262 266 265 265 270 276 278 278 282 287 289 290 292 293 295 297 297 296 299 302 304 307 311 312 312 314 314 314 317 317 317 316 314 311 313 318 318 315 316 318 317 316 314 313 313 313 312 310 310 313 315 318 320 321 322 321 320 318 313 311 311 310 311 315 323
242 243 243 245 247 248 250 249 250 255 258 259 263 267 269 273 277 281 282 283 286 287 288 289 289 292 295 298 302 304 308 312 312 313 313 312 313 316 315 314 315 314 315 315 315 313 312 315 316 315 313 313 313 313 312 312 309 308 311 312 314 316 318 320 320 317 314 311 308 306 306 306 308 313
240 241 242 243 240 242 247 249 248 250 254 257 260 263 265 268 272 276 278 282 285 286 287 287 289 293 295 297 301 304 305 308 309 311 311 309 311 313 312 311 313 314 314 313 312 312 314 314 312 311 311 313 313 313 314 312 309 311 313 311 311 312 313 316 319 318 312 307 305 303 301 301 303 306
242 244 245 245 248 250 251 253 253 253 255 259 261 262 263 263 264 267 270 274 280 284 285 287 290 292 293 295 298 301 303 305 306 307 307 306 308 310 310 310 312 313 313 313 313 314 316 316 313 312 313 312 311 310 305 302 305 309 311 308 307 308 308 310 315 317 313 305 300 299 297 295 298 301
244 247 247 249 258 263 259 255 259 258 255 257 260 261 261 261 262 263 264 265 268 271 276 280 285 287 289 293 296 299 302 303 302 302 302 304 306 308 307 307 309 311 312 313 313 314 316 317 314 313 316 316 315 310 300 300 307 309 307 306 305 304 304 305 309 313 312 304 297 294 292 290 292 296
246 248 249 249 254 261 259 259 267 271 269 267 267 267 267 267 267 267 268 269 270 271 273 276 278 282 286 290 294 297 300 300 300 300 302 303 304 303 303 303 304 308 310 311 310 310 312 314 313 314 317 317 314 307 303 306 310 310 306 306 305 302 302 301 303 307 308 304 296 288 286 285 286 289
251 253 256 257 256 259 262 266 272 276 278 277 277 276 275 274 274 273 272 273 275 277 279 281 283 285 288 290 292 295 297 299 300 301 301 302 301 300 300 300 301 305 307 307 307 306 309 312 312 310 311 312 309 306 307 309 310 310 308 305 304 302 300 299 299 300 302 302 297 289 282 280 281 283
251 256 261 265 266 266 267 272 275 277 278 279 279 279 279 279 279 278 277 277 277 278 279 280 282 285 286 288 290 294 298 299 300 301 301 301 300 299 298 298 299 302 305 307 307 305 307 311 309 306 308 310 307 304 303 303 306 307 306 304 304 302 300 297 296 295 296 296 296 292 285 280 278 279
250 254 258 263 268 270 269 270 273 274 275 276 276 276 276 277 277 278 279 278 276 277 280 280 281 283 283 286 291 295 298 299 298 299 299 298 298 298 298 299 300 302 304 305 301 299 303 309 307 306 308 308 305 304 302 302 304 305 303 301 301 301 300 297 293 291 290 290 290 290 287 283 279 278
256 257 256 257 263 269 269 268 269 271 273 275 275 275 275 275 275 276 277 277 276 275 274 274 277 279 281 284 289 292 294 294 295 295 294 293 296 298 298 298 298 299 298 297 293 294 300 305 305 304 308 308 306 307 306 304 307 308 305 300 295 294 297 297 293 290 287 285 285 286 285 283 280 278
263 261 259 258 260 264 266 267 269 271 273 276 277 278 277 275 276 276 276 281 285 281 276 273 275 278 280 283 285 286 289 291 292 291 289 291 294 293 290 289 291 292 292 292 293 292 296 302 303 303 306 308 307 308 307 306 305 306 306 303 298 293 292 293 296 295 291 287 285 283 282 282 280 278
257 259 262 261 260 262 265 270 274 274 275 277 278 278 278 277 279 280 278 279 283 285 283 282 281 282 284 285 285 286 288 289 288 285 285 288 289 285 282 283 287 289 290 292 292 291 294 300 302 303 307 307 307 306 305 302 301 302 303 304 303 301 297 292 292 296 297 295 291 287 283 281 279 278
245 255 262 261 258 261 266 271 274 275 274 275 275 275 277 277 275 275 274 274 276 278 282 285 288 289 289 289 288 289 290 290 289 286 285 286 284 279 278 282 288 292 294 295 293 292 294 297 297 301 306 307 306 307 307 304 303 303 302 300 302 305 303 298 293 289 288 289 291 292 290 286 282 280
248 255 263 261 259 264 272 275 276 276 275 275 276 275 275 274 273 273 275 277 278 281 285 289 292 293 293 291 291 293 294 293 293 295 295 293 286 281 282 286 287 285 286 287 286 288 292 293 293 295 297 299 302 307 309 307 303 300 299 299 299 300 300 301 300 295 290 288 285 286 291 293 289 284
257 253 261 266 266 271 280 281 280 279 279 279 279 277 275 276 278 281 282 282 284 286 290 292 292 293 295 294 293 294 292 285 282 288 291 287 280 277 282 285 280 276 277 281 284 286 286 286 288 292 293 292 296 302 305 306 306 304 302 300 297 294 294 297 298 298 299 299 294 290 293 298 297 292
270 266 270 276 278 281 284 284 283 283 283 281 279 278 278 279 282 284 286 288 289 289 290 289 289 292 295 294 293 293 291 286 281 278 279 278 277 277 280 281 279 279 281 283 285 286 285 283 284 288 290 291 294 297 300 304 307 307 302 299 298 297 297 296 294 294 295 296 297 297 297 299 301 299
264 277 274 279 286 287 287 289 290 289 288 286 284 283 283 285 285 287 290 292 290 289 291 295 296 297 298 298 296 293 290 289 288 287 287 289 289 288 287 285 282 281 283 284 285 286 286 285 285 288 290 292 293 295 296 299 303 304 302 300 298 298 298 296 293 292 290 289 293 297 299 300 300 297
276 285 284 288 296 296 296 298 297 295 294 295 295 295 297 296 293 292 293 290 286 285 289 291 289 288 289 293 294 293 293 295 297 298 298 298 297 295 294 291 286 284 285 286 287 287 287 286 287 289 292 291 290 291 293 295 298 301 302 301 298 295 295 294 293 293 291 288 289 292 294 299 301 299
294 300 305 309 309 307 307 306 303 300 299 299 299 302 308 308 302 300 301 298 293 291 290 288 287 285 286 289 291 292 294 297 302 305 302 301 301 301 300 299 297 297 296 293 290 290 288 286 286 286 288 289 289 290 292 295 296 298 299 300 299 297 297 297 296 295 292 289 287 285 286 289 292 294
308 310 313 314 313 313 313 312 311 309 308 307 306 308 313 312 306 306 308 305 301 298 296 295 294 293 292 292 293 295 296 298 302 303 300 301 304 305 305 304 305 307 307 304 300 298 295 291 291 289 288 290 291 290 292 293 294 295 296 297 299 299 300 301 299 295 292 292 290 286 283 282 283 286
311 313 315 315 318 321 321 321 321 318 317 318 316 314 314 311 307 309 311 309 307 305 304 303 302 301 301 300 300 300 301 302 304 303 301 303 307 310 311 311 311 312 310 304 301 300 297 295 295 295 296 297 297 295 295 294 293 294 295 295 295 297 300 302 301 298 296 295 291 288 285 284 284 284
309 314 319 322 325 327 325 323 319 315 316 317 315 315 315 312 310 312 313 313 314 313 310 308 307 307 307 307 307 306 305 306 310 311 309 307 307 308 310 310 312 314 310 303 300 302 303 303 303 304 306 305 301 299 299 296 293 292 293 293 293 295 297 299 299 298 298 295 292 291 289 287 287 286
320 325 329 330 330 329 325 322 317 314 315 315 313 314 313 311 311 313 313 314 317 317 316 315 314 314 314 315 314 312 312 315 320 321 320 317 314 312 311 310 310 311 310 307 306 307 310 311 311 310 310 309 305 303 302 299 296 295 294 294 294 294 294 296 296 297 298 295 293 293 292 289 289 287
337 343 343 340 338 337 334 331 328 324 321 320 318 316 314 312 312 311 310 312 314 314 316 317 317 318 319 318 315 314 316 320 324 324 324 324 323 320 319 317 314 313 312 310 310 311 311 312 312 311 311 310 309 307 304 303 303 301 297 296 295 295 296 298 299 298 298 297 296 294 293 291 290 290
344 346 345 341 340 343 342 337 335 334 332 328 326 323 320 317 315 312 311 311 312 312 313 314 315 315 315 315 314 315 316 319 321 322 322 323 323 322 322 321 319 317 316 315 315 317 317 318 318 318 316 314 312 308 306 307 309 306 303 301 300 300 300 301 302 300 299 299 299 297 294 292 291 290
336 340 342 338 336 339 338 334 334 335 332 329 328 327 326 323 319 317 316 315 314 313 313 314 314 313 313 313 314 315 317 318 320 321 321 321 321 320 320 320 318 318 317 317 318 319 320 323 326 325 320 316 313 309 307 308 307 305 303 303 303 302 302 303 304 301 299 299 298 295 292 291 291 292
322 332 338 331 328 329 328 325 327 326 323 323 323 322 322 322 319 318 319 319 318 318 318 318 317 315 315 315 315 315 317 319 320 321 321 321 321 320 320 319 318 317 316 315 316 318 321 324 327 325 317 313 310 307 308 308 304 300 301 303 303 302 303 303 302 299 298 297 294 293 291 290 291 293
333 336 337 329 324 323 321 319 319 318 317 317 317 316 315 315 313 314 316 317 316 317 318 319 318 317 318 318 317 318 319 319 320 321 322 322 322 321 320 319 318 317 315 314 314 316 319 322 325 321 314 309 306 306 308 308 306 305 305 306 306 306 307 307 302 299 298 297 294 293 292 290 290 292
341 339 337 330 323 321 321 319 318 317 316 315 314 313 311 308 308 310 310 309 309 311 314 314 314 315 317 317 317 317 317 317 318 319 320 320 321 322 321 320 318 317 316 314 314 316 318 321 320 311 304 303 302 302 304 304 305 305 306 309 312 313 312 309 304 300 299 298 297 295 293 290 290 293
338 336 328 323 320 320 321 321 320 319 317 315 314 313 309 308 309 308 305 305 307 310 313 314 314 316 317 317 316 315 314 315 315 316 315 316 318 319 320 319 320 321 319 314 313 314 315 314 308 304 304 306 306 308 308 306 305 306 307 309 310 307 302 300 299 299 299 300 300 299 297 294 293 294
334 335 325 320 320 322 320 318 317 317 316 317 318 313 308 307 308 305 305 309 313 314 315 315 315 316 318 318 317 316 314 313 314 313 312 312 313 315 317 318 319 318 314 310 308 308 308 306 304 305 309 311 311 311 308 303 301 303 304 304 302 301 301 301 300 298 299 301 301 298 296 296 296 295
325 329 325 319 319 320 318 315 314 314 313 312 310 306 306 308 309 309 311 315 315 314 314 311 310 312 316 316 315 314 313 313 313 311 309 310 311 311 313 315 314 311 309 308 308 306 306 307 308 309 311 312 311 307 300 295 295 298 301 304 304 304 303 301 298 296 297 299 299 296 294 294 293 291
316 318 318 316 316 317 317 315 315 314 313 312 311 311 313 314 312 310 312 313 311 311 311 306 303 306 312 313 312 313 314 313 311 309 308 309 311 311 312 312 310 309 310 310 307 305 306 308 309 311 311 309 306 300 295 294 295 297 300 303 304 304 303 301 301 301 301 301 300 298 296 294 289 286
307 309 311 312 315 316 316 315 314 313 312 312 313 313 313 311 310 308 309 309 310 311 309 304 300 302 307 308 307 308 310 310 309 311 312 313 313 312 311 310 309 309 309 308 305 304 305 305 306 307 307 304 301 297 294 294 295 296 298 301 304 307 309 308 307 305 302 300 298 296 295 294 291 289
307 309 309 310 313 315 314 314 313 312 310 310 310 310 309 307 306 305 305 306 306 306 306 306 304 303 304 303 302 304 308 311 313 314 313 312 311 310 309 308 307 306 306 306 304 303 302 302 302 303 303 300 298 297 295 294 294 295 297 300 304 307 307 305 303 301 300 299 299 298 297 296 295 295